Year,Month,Day,Hour,Minute,Value (Times are PST for temperature in C)
2009,07,28,00,00,24.20
2009,07,28,00,01,24.20
2009,07,28,00,02,24.20
2009,07,28,00,03,24.10
2009,07,28,00,04,24.10
2009,07,28,00,05,24.10
2009,07,28,00,06,24.10
2009,07,28,00,07,24.10
2009,07,28,00,08,24.10
2009,07,28,00,09,24.00
2009,07,28,00,10,24.00
2009,07,28,00,11,23.90
2009,07,28,00,12,23.90
2009,07,28,00,13,23.90
2009,07,28,00,14,23.80
2009,07,28,00,15,23.80
2009,07,28,00,16,23.70
2009,07,28,00,17,23.70
2009,07,28,00,18,23.70
2009,07,28,00,19,23.70
2009,07,28,00,20,23.60
2009,07,28,00,21,23.60
2009,07,28,00,22,23.60
2009,07,28,00,23,23.60
2009,07,28,00,24,23.60
2009,07,28,00,25,23.50
2009,07,28,00,26,23.50
2009,07,28,00,27,23.50
2009,07,28,00,28,23.40
2009,07,28,00,29,23.40
2009,07,28,00,30,23.40
2009,07,28,00,31,23.40
2009,07,28,00,32,23.40
2009,07,28,00,33,23.40
2009,07,28,00,34,23.30
2009,07,28,00,35,23.30
2009,07,28,00,36,23.30
2009,07,28,00,37,23.20
2009,07,28,00,38,23.20
2009,07,28,00,39,23.20
2009,07,28,00,40,23.20
2009,07,28,00,41,23.10
2009,07,28,00,42,23.10
2009,07,28,00,43,23.10
2009,07,28,00,44,23.10
2009,07,28,00,45,23.10
2009,07,28,00,46,23.00
2009,07,28,00,47,23.00
2009,07,28,00,48,22.90
2009,07,28,00,49,22.90
2009,07,28,00,50,22.90
2009,07,28,00,51,22.90
2009,07,28,00,52,22.80
2009,07,28,00,53,22.80
2009,07,28,00,54,22.80
2009,07,28,00,55,22.80
2009,07,28,00,56,22.80
2009,07,28,00,57,22.80
2009,07,28,00,58,22.80
2009,07,28,00,59,22.80
2009,07,28,01,00,22.80
2009,07,28,01,01,22.80
2009,07,28,01,02,22.90
2009,07,28,01,03,22.90
2009,07,28,01,04,22.90
2009,07,28,01,05,22.90
2009,07,28,01,06,22.90
2009,07,28,01,07,22.90
2009,07,28,01,08,22.90
2009,07,28,01,09,22.90
2009,07,28,01,10,22.90
2009,07,28,01,11,22.90
2009,07,28,01,12,22.90
2009,07,28,01,13,22.90
2009,07,28,01,14,22.90
2009,07,28,01,15,22.90
2009,07,28,01,16,22.90
2009,07,28,01,17,22.90
2009,07,28,01,18,22.90
2009,07,28,01,19,22.90
2009,07,28,01,20,22.90
2009,07,28,01,21,22.90
2009,07,28,01,22,22.90
2009,07,28,01,23,22.90
2009,07,28,01,24,22.90
2009,07,28,01,25,22.90
2009,07,28,01,26,22.90
2009,07,28,01,27,22.90
2009,07,28,01,28,22.90
2009,07,28,01,29,22.90
2009,07,28,01,30,22.90
2009,07,28,01,31,22.90
2009,07,28,01,32,22.90
2009,07,28,01,33,22.90
2009,07,28,01,34,22.90
2009,07,28,01,35,22.80
2009,07,28,01,36,22.80
2009,07,28,01,37,22.80
2009,07,28,01,38,22.80
2009,07,28,01,39,22.80
2009,07,28,01,40,22.80
2009,07,28,01,41,22.70
2009,07,28,01,42,22.70
2009,07,28,01,43,22.70
2009,07,28,01,44,22.60
2009,07,28,01,45,22.60
2009,07,28,01,46,22.60
2009,07,28,01,47,22.60
2009,07,28,01,48,22.60
2009,07,28,01,49,22.60
2009,07,28,01,50,22.60
2009,07,28,01,51,22.60
2009,07,28,01,52,22.50
2009,07,28,01,53,22.50
2009,07,28,01,54,22.40
2009,07,28,01,55,22.40
2009,07,28,01,56,22.40
2009,07,28,01,57,22.40
2009,07,28,01,58,22.40
2009,07,28,01,59,22.40
2009,07,28,02,00,22.40
2009,07,28,02,01,22.40
2009,07,28,02,02,22.40
2009,07,28,02,03,22.40
2009,07,28,02,04,22.30
2009,07,28,02,05,22.30
2009,07,28,02,06,22.30
2009,07,28,02,07,22.30
2009,07,28,02,08,22.30
2009,07,28,02,09,22.30
2009,07,28,02,10,22.30
2009,07,28,02,11,22.20
2009,07,28,02,12,22.20
2009,07,28,02,13,22.20
2009,07,28,02,14,22.10
2009,07,28,02,15,22.10
2009,07,28,02,16,22.10
2009,07,28,02,17,22.00
2009,07,28,02,18,22.00
2009,07,28,02,19,22.00
2009,07,28,02,20,21.90
2009,07,28,02,21,21.90
2009,07,28,02,22,21.90
2009,07,28,02,23,21.80
2009,07,28,02,24,21.80
2009,07,28,02,25,21.80
2009,07,28,02,26,21.80
2009,07,28,02,27,21.80
2009,07,28,02,28,21.80
2009,07,28,02,29,21.70
2009,07,28,02,30,21.70
2009,07,28,02,31,21.70
2009,07,28,02,32,21.70
2009,07,28,02,33,21.60
2009,07,28,02,34,21.60
2009,07,28,02,35,21.60
2009,07,28,02,36,21.60
2009,07,28,02,37,21.60
2009,07,28,02,38,21.50
2009,07,28,02,39,21.50
2009,07,28,02,40,21.50
2009,07,28,02,41,21.50
2009,07,28,02,42,21.40
2009,07,28,02,43,21.40
2009,07,28,02,44,21.40
2009,07,28,02,45,21.40
2009,07,28,02,46,21.30
2009,07,28,02,47,21.30
2009,07,28,02,48,21.30
2009,07,28,02,49,21.30
2009,07,28,02,50,21.30
2009,07,28,02,51,21.30
2009,07,28,02,52,21.30
2009,07,28,02,53,21.30
2009,07,28,02,54,21.30
2009,07,28,02,55,21.30
2009,07,28,02,56,21.30
2009,07,28,02,57,21.20
2009,07,28,02,58,21.20
2009,07,28,02,59,21.20
2009,07,28,03,00,21.20
2009,07,28,03,01,21.20
2009,07,28,03,02,21.20
2009,07,28,03,03,21.20
2009,07,28,03,04,21.20
2009,07,28,03,05,21.20
2009,07,28,03,06,21.20
2009,07,28,03,07,21.20
2009,07,28,03,08,21.20
2009,07,28,03,09,21.20
2009,07,28,03,10,21.20
2009,07,28,03,11,21.20
2009,07,28,03,12,21.20
2009,07,28,03,13,21.10
2009,07,28,03,14,21.10
2009,07,28,03,15,21.10
2009,07,28,03,16,21.10
2009,07,28,03,17,21.10
2009,07,28,03,18,21.10
2009,07,28,03,19,21.10
2009,07,28,03,20,21.10
2009,07,28,03,21,21.10
2009,07,28,03,22,21.10
2009,07,28,03,23,21.10
2009,07,28,03,24,21.10
2009,07,28,03,25,21.10
2009,07,28,03,26,21.10
2009,07,28,03,27,21.10
2009,07,28,03,28,21.10
2009,07,28,03,29,21.10
2009,07,28,03,30,21.10
2009,07,28,03,31,21.10
2009,07,28,03,32,21.10
2009,07,28,03,33,21.10
2009,07,28,03,34,21.10
2009,07,28,03,35,21.10
2009,07,28,03,36,21.10
2009,07,28,03,37,21.10
2009,07,28,03,38,21.00
2009,07,28,03,39,21.00
2009,07,28,03,40,21.00
2009,07,28,03,41,21.00
2009,07,28,03,42,21.00
2009,07,28,03,43,21.00
2009,07,28,03,44,21.00
2009,07,28,03,45,20.90
2009,07,28,03,46,20.90
2009,07,28,03,47,20.90
2009,07,28,03,48,20.90
2009,07,28,03,49,20.80
2009,07,28,03,50,20.80
2009,07,28,03,51,20.80
2009,07,28,03,52,20.80
2009,07,28,03,53,20.80
2009,07,28,03,54,20.80
2009,07,28,03,55,20.80
2009,07,28,03,56,20.70
2009,07,28,03,57,20.70
2009,07,28,03,58,20.70
2009,07,28,03,59,20.70
2009,07,28,04,00,20.70
2009,07,28,04,01,20.70
2009,07,28,04,02,20.60
2009,07,28,04,03,20.60
2009,07,28,04,04,20.60
2009,07,28,04,05,20.60
2009,07,28,04,06,20.60
2009,07,28,04,07,20.60
2009,07,28,04,08,20.60
2009,07,28,04,09,20.50
2009,07,28,04,10,20.50
2009,07,28,04,11,20.50
2009,07,28,04,12,20.40
2009,07,28,04,13,20.40
2009,07,28,04,14,20.40
2009,07,28,04,15,20.40
2009,07,28,04,16,20.40
2009,07,28,04,17,20.40
2009,07,28,04,18,20.40
2009,07,28,04,19,20.40
2009,07,28,04,20,20.40
2009,07,28,04,21,20.40
2009,07,28,04,22,20.40
2009,07,28,04,23,20.30
2009,07,28,04,24,20.30
2009,07,28,04,25,20.30
2009,07,28,04,26,20.30
2009,07,28,04,27,20.30
2009,07,28,04,28,20.30
2009,07,28,04,29,20.30
2009,07,28,04,30,20.30
2009,07,28,04,31,20.30
2009,07,28,04,32,20.30
2009,07,28,04,33,20.30
2009,07,28,04,34,20.30
2009,07,28,04,35,20.20
2009,07,28,04,36,20.20
2009,07,28,04,37,20.20
2009,07,28,04,38,20.20
2009,07,28,04,39,20.20
2009,07,28,04,40,20.20
2009,07,28,04,41,20.20
2009,07,28,04,42,20.20
2009,07,28,04,43,20.20
2009,07,28,04,44,20.20
2009,07,28,04,45,20.20
2009,07,28,04,46,20.20
2009,07,28,04,47,20.20
2009,07,28,04,48,20.10
2009,07,28,04,49,20.20
2009,07,28,04,50,20.10
2009,07,28,04,51,20.20
2009,07,28,04,52,20.20
2009,07,28,04,53,20.10
2009,07,28,04,54,20.10
2009,07,28,04,55,20.10
2009,07,28,04,56,20.10
2009,07,28,04,57,20.10
2009,07,28,04,58,20.10
2009,07,28,04,59,20.10
2009,07,28,05,00,20.10
2009,07,28,05,01,20.10
2009,07,28,05,02,20.10
2009,07,28,05,03,20.10
2009,07,28,05,04,20.10
2009,07,28,05,05,20.10
2009,07,28,05,06,20.10
2009,07,28,05,07,20.10
2009,07,28,05,08,20.10
2009,07,28,05,09,20.00
2009,07,28,05,10,20.00
2009,07,28,05,11,20.00
2009,07,28,05,12,20.00
2009,07,28,05,13,20.00
2009,07,28,05,14,20.00
2009,07,28,05,15,20.00
2009,07,28,05,16,20.00
2009,07,28,05,17,20.00
2009,07,28,05,18,20.00
2009,07,28,05,19,20.00
2009,07,28,05,20,20.00
2009,07,28,05,21,20.00
2009,07,28,05,22,20.00
2009,07,28,05,23,20.00
2009,07,28,05,24,20.00
2009,07,28,05,25,19.90
2009,07,28,05,26,19.90
2009,07,28,05,27,19.90
2009,07,28,05,28,19.90
2009,07,28,05,29,19.90
2009,07,28,05,30,19.90
2009,07,28,05,31,19.80
2009,07,28,05,32,19.80
2009,07,28,05,33,19.80
2009,07,28,05,34,19.80
2009,07,28,05,35,19.80
2009,07,28,05,36,19.80
2009,07,28,05,37,19.80
2009,07,28,05,38,19.80
2009,07,28,05,39,19.80
2009,07,28,05,40,19.80
2009,07,28,05,41,19.80
2009,07,28,05,42,19.80
2009,07,28,05,43,19.70
2009,07,28,05,44,19.70
2009,07,28,05,45,19.70
2009,07,28,05,46,19.70
2009,07,28,05,47,19.70
2009,07,28,05,48,19.70
2009,07,28,05,49,19.70
2009,07,28,05,50,19.70
2009,07,28,05,51,19.70
2009,07,28,05,52,19.60
2009,07,28,05,53,19.60
2009,07,28,05,54,19.60
2009,07,28,05,55,19.60
2009,07,28,05,56,19.60
2009,07,28,05,57,19.60
2009,07,28,05,58,19.60
2009,07,28,05,59,19.60
2009,07,28,06,00,19.60
2009,07,28,06,01,19.60
2009,07,28,06,02,19.60
2009,07,28,06,03,19.50
2009,07,28,06,04,19.50
2009,07,28,06,05,19.50
2009,07,28,06,06,19.50
2009,07,28,06,07,19.50
2009,07,28,06,08,19.60
2009,07,28,06,09,19.60
2009,07,28,06,10,19.60
2009,07,28,06,11,19.60
2009,07,28,06,12,19.60
2009,07,28,06,13,19.60
2009,07,28,06,14,19.60
2009,07,28,06,15,19.60
2009,07,28,06,16,19.60
2009,07,28,06,17,19.60
2009,07,28,06,18,19.60
2009,07,28,06,19,19.60
2009,07,28,06,20,19.60
2009,07,28,06,21,19.60
2009,07,28,06,22,19.60
2009,07,28,06,23,19.60
2009,07,28,06,24,19.60
2009,07,28,06,25,19.60
2009,07,28,06,26,19.60
2009,07,28,06,27,19.60
2009,07,28,06,28,19.60
2009,07,28,06,29,19.60
2009,07,28,06,30,19.60
2009,07,28,06,31,19.60
2009,07,28,06,32,19.60
2009,07,28,06,33,19.60
2009,07,28,06,34,19.60
2009,07,28,06,35,19.60
2009,07,28,06,36,19.60
2009,07,28,06,37,19.60
2009,07,28,06,38,19.60
2009,07,28,06,39,19.70
2009,07,28,06,40,19.70
2009,07,28,06,41,19.70
2009,07,28,06,42,19.70
2009,07,28,06,43,19.70
2009,07,28,06,44,19.70
2009,07,28,06,45,19.70
2009,07,28,06,46,19.70
2009,07,28,06,47,19.70
2009,07,28,06,48,19.70
2009,07,28,06,49,19.70
2009,07,28,06,50,19.70
2009,07,28,06,51,19.70
2009,07,28,06,52,19.60
2009,07,28,06,53,19.70
2009,07,28,06,54,19.70
2009,07,28,06,55,19.70
2009,07,28,06,56,19.70
2009,07,28,06,57,19.70
2009,07,28,06,58,19.70
2009,07,28,06,59,19.70
2009,07,28,07,00,19.70
2009,07,28,07,01,19.70
2009,07,28,07,02,19.70
2009,07,28,07,03,19.80
2009,07,28,07,04,19.80
2009,07,28,07,05,19.80
2009,07,28,07,06,19.80
2009,07,28,07,07,19.90
2009,07,28,07,08,19.90
2009,07,28,07,09,19.90
2009,07,28,07,10,20.00
2009,07,28,07,11,20.00
2009,07,28,07,12,20.00
2009,07,28,07,13,20.10
2009,07,28,07,14,20.10
2009,07,28,07,15,20.10
2009,07,28,07,16,20.10
2009,07,28,07,17,20.20
2009,07,28,07,18,20.20
2009,07,28,07,19,20.20
2009,07,28,07,20,20.20
2009,07,28,07,21,20.30
2009,07,28,07,22,20.30
2009,07,28,07,23,20.30
2009,07,28,07,24,20.30
2009,07,28,07,25,20.40
2009,07,28,07,26,20.40
2009,07,28,07,27,20.40
2009,07,28,07,28,20.40
2009,07,28,07,29,20.40
2009,07,28,07,30,20.50
2009,07,28,07,31,20.50
2009,07,28,07,32,20.60
2009,07,28,07,33,20.60
2009,07,28,07,34,20.60
2009,07,28,07,35,20.60
2009,07,28,07,36,20.60
2009,07,28,07,37,20.70
2009,07,28,07,38,20.70
2009,07,28,07,39,20.70
2009,07,28,07,40,20.70
2009,07,28,07,41,20.70
2009,07,28,07,42,20.70
2009,07,28,07,43,20.80
2009,07,28,07,44,20.80
2009,07,28,07,45,20.80
2009,07,28,07,46,20.80
2009,07,28,07,47,20.80
2009,07,28,07,48,20.90
2009,07,28,07,49,20.90
2009,07,28,07,50,21.00
2009,07,28,07,51,21.00
2009,07,28,07,52,21.10
2009,07,28,07,53,21.10
2009,07,28,07,54,21.10
2009,07,28,07,55,21.20
2009,07,28,07,56,21.20
2009,07,28,07,57,21.20
2009,07,28,07,58,21.30
2009,07,28,07,59,21.30
2009,07,28,08,00,21.40
2009,07,28,08,01,21.40
2009,07,28,08,02,21.50
2009,07,28,08,03,21.50
2009,07,28,08,04,21.60
2009,07,28,08,05,21.60
2009,07,28,08,06,21.70
2009,07,28,08,07,21.70
2009,07,28,08,08,21.80
2009,07,28,08,09,21.80
2009,07,28,08,10,21.80
2009,07,28,08,11,21.90
2009,07,28,08,12,21.90
2009,07,28,08,13,22.00
2009,07,28,08,14,22.10
2009,07,28,08,15,22.10
2009,07,28,08,16,22.10
2009,07,28,08,17,22.20
2009,07,28,08,18,22.20
2009,07,28,08,19,22.30
2009,07,28,08,20,22.30
2009,07,28,08,21,22.40
2009,07,28,08,22,22.40
2009,07,28,08,23,22.40
2009,07,28,08,24,22.50
2009,07,28,08,25,22.60
2009,07,28,08,26,22.70
2009,07,28,08,27,22.80
2009,07,28,08,28,22.80
2009,07,28,08,29,22.90
2009,07,28,08,30,23.00
2009,07,28,08,31,23.10
2009,07,28,08,32,23.20
2009,07,28,08,33,23.30
2009,07,28,08,34,23.40
2009,07,28,08,35,23.40
2009,07,28,08,36,23.50
2009,07,28,08,37,23.60
2009,07,28,08,38,23.70
2009,07,28,08,39,23.80
2009,07,28,08,40,23.80
2009,07,28,08,41,23.90
2009,07,28,08,42,24.00
2009,07,28,08,43,24.00
2009,07,28,08,44,24.10
2009,07,28,08,45,24.20
2009,07,28,08,46,24.30
2009,07,28,08,47,24.40
2009,07,28,08,48,24.40
2009,07,28,08,49,24.50
2009,07,28,08,50,24.60
2009,07,28,08,51,24.70
2009,07,28,08,52,24.70
2009,07,28,08,53,24.80
2009,07,28,08,54,24.90
2009,07,28,08,55,25.00
2009,07,28,08,56,25.10
2009,07,28,08,57,25.20
2009,07,28,08,58,25.30
2009,07,28,08,59,25.40
2009,07,28,09,00,25.40
2009,07,28,09,01,25.50
2009,07,28,09,02,25.60
2009,07,28,09,03,25.60
2009,07,28,09,04,25.70
2009,07,28,09,05,25.80
2009,07,28,09,06,25.80
2009,07,28,09,07,25.80
2009,07,28,09,08,25.80
2009,07,28,09,09,25.90
2009,07,28,09,10,25.90
2009,07,28,09,11,25.90
2009,07,28,09,12,25.90
2009,07,28,09,13,25.90
2009,07,28,09,14,26.00
2009,07,28,09,15,26.00
2009,07,28,09,16,26.10
2009,07,28,09,17,26.10
2009,07,28,09,18,26.20
2009,07,28,09,19,26.20
2009,07,28,09,20,26.30
2009,07,28,09,21,26.30
2009,07,28,09,22,26.40
2009,07,28,09,23,26.40
2009,07,28,09,24,26.50
2009,07,28,09,25,26.50
2009,07,28,09,26,26.60
2009,07,28,09,27,26.60
2009,07,28,09,28,26.70
2009,07,28,09,29,26.70
2009,07,28,09,30,26.80
2009,07,28,09,31,26.80
2009,07,28,09,32,26.80
2009,07,28,09,33,26.90
2009,07,28,09,34,26.90
2009,07,28,09,35,26.90
2009,07,28,09,36,26.90
2009,07,28,09,37,27.00
2009,07,28,09,38,27.00
2009,07,28,09,39,27.10
2009,07,28,09,40,27.10
2009,07,28,09,41,27.10
2009,07,28,09,42,27.20
2009,07,28,09,43,27.20
2009,07,28,09,44,27.30
2009,07,28,09,45,27.30
2009,07,28,09,46,27.30
2009,07,28,09,47,27.40
2009,07,28,09,48,27.40
2009,07,28,09,49,27.40
2009,07,28,09,50,27.50
2009,07,28,09,51,27.50
2009,07,28,09,52,27.50
2009,07,28,09,53,27.50
2009,07,28,09,54,27.60
2009,07,28,09,55,27.60
2009,07,28,09,56,27.60
2009,07,28,09,57,27.60
2009,07,28,09,58,27.50
2009,07,28,09,59,27.50
2009,07,28,10,00,27.50
2009,07,28,10,01,27.50
2009,07,28,10,02,27.50
2009,07,28,10,03,27.50
2009,07,28,10,04,27.60
2009,07,28,10,05,27.60
2009,07,28,10,06,27.60
2009,07,28,10,07,27.60
2009,07,28,10,08,27.60
2009,07,28,10,09,27.70
2009,07,28,10,10,27.70
2009,07,28,10,11,27.70
2009,07,28,10,12,27.80
2009,07,28,10,13,27.90
2009,07,28,10,14,28.10
2009,07,28,10,15,28.20
2009,07,28,10,16,28.40
2009,07,28,10,17,28.50
2009,07,28,10,18,28.60
2009,07,28,10,19,28.70
2009,07,28,10,20,28.80
2009,07,28,10,21,28.90
2009,07,28,10,22,29.00
2009,07,28,10,23,29.00
2009,07,28,10,24,29.10
2009,07,28,10,25,29.20
2009,07,28,10,26,29.20
2009,07,28,10,27,29.20
2009,07,28,10,28,29.30
2009,07,28,10,29,29.30
2009,07,28,10,30,29.40
2009,07,28,10,31,29.40
2009,07,28,10,32,29.40
2009,07,28,10,33,29.60
2009,07,28,10,34,29.60
2009,07,28,10,35,29.70
2009,07,28,10,36,29.70
2009,07,28,10,37,29.70
2009,07,28,10,38,29.80
2009,07,28,10,39,29.80
2009,07,28,10,40,29.80
2009,07,28,10,41,29.80
2009,07,28,10,42,29.80
2009,07,28,10,43,29.80
2009,07,28,10,44,29.80
2009,07,28,10,45,29.80
2009,07,28,10,46,29.80
2009,07,28,10,47,29.90
2009,07,28,10,48,29.90
2009,07,28,10,49,30.00
2009,07,28,10,50,30.00
2009,07,28,10,51,30.00
2009,07,28,10,52,29.90
2009,07,28,10,53,30.00
2009,07,28,10,54,30.00
2009,07,28,10,55,30.10
2009,07,28,10,56,30.20
2009,07,28,10,57,30.30
2009,07,28,10,58,30.30
2009,07,28,10,59,30.30
2009,07,28,11,00,30.30
2009,07,28,11,01,30.30
2009,07,28,11,02,30.30
2009,07,28,11,03,30.30
2009,07,28,11,04,30.30
2009,07,28,11,05,30.30
2009,07,28,11,06,30.40
2009,07,28,11,07,30.50
2009,07,28,11,08,30.60
2009,07,28,11,09,30.60
2009,07,28,11,10,30.70
2009,07,28,11,11,30.90
2009,07,28,11,12,31.00
2009,07,28,11,13,31.10
2009,07,28,11,14,31.10
2009,07,28,11,15,31.20
2009,07,28,11,16,31.20
2009,07,28,11,17,31.20
2009,07,28,11,18,31.10
2009,07,28,11,19,31.10
2009,07,28,11,20,31.20
2009,07,28,11,21,31.20
2009,07,28,11,22,31.20
2009,07,28,11,23,31.20
2009,07,28,11,24,31.10
2009,07,28,11,25,31.00
2009,07,28,11,26,31.00
2009,07,28,11,27,31.00
2009,07,28,11,28,30.90
2009,07,28,11,29,31.00
2009,07,28,11,30,31.10
2009,07,28,11,31,31.10
2009,07,28,11,32,31.20
2009,07,28,11,33,31.20
2009,07,28,11,34,31.30
2009,07,28,11,35,31.30
2009,07,28,11,36,31.30
2009,07,28,11,37,31.30
2009,07,28,11,38,31.20
2009,07,28,11,39,31.20
2009,07,28,11,40,31.10
2009,07,28,11,41,31.20
2009,07,28,11,42,31.20
2009,07,28,11,43,31.20
2009,07,28,11,44,31.20
2009,07,28,11,45,31.20
2009,07,28,11,46,31.20
2009,07,28,11,47,31.20
2009,07,28,11,48,31.30
2009,07,28,11,49,31.30
2009,07,28,11,50,31.40
2009,07,28,11,51,31.50
2009,07,28,11,52,31.60
2009,07,28,11,53,31.60
2009,07,28,11,54,31.70
2009,07,28,11,55,31.80
2009,07,28,11,56,31.70
2009,07,28,11,57,31.70
2009,07,28,11,58,31.60
2009,07,28,11,59,31.60
2009,07,28,12,00,31.60
2009,07,28,12,01,31.70
2009,07,28,12,02,31.70
2009,07,28,12,03,31.70
2009,07,28,12,04,31.70
2009,07,28,12,05,31.80
2009,07,28,12,06,31.90
2009,07,28,12,07,31.90
2009,07,28,12,08,32.00
2009,07,28,12,09,32.10
2009,07,28,12,10,32.20
2009,07,28,12,11,32.30
2009,07,28,12,12,32.30
2009,07,28,12,13,32.20
2009,07,28,12,14,32.20
2009,07,28,12,15,32.30
2009,07,28,12,16,32.40
2009,07,28,12,17,32.50
2009,07,28,12,18,32.60
2009,07,28,12,19,32.70
2009,07,28,12,20,32.80
2009,07,28,12,21,33.00
2009,07,28,12,22,33.10
2009,07,28,12,23,33.20
2009,07,28,12,24,33.30
2009,07,28,12,25,33.30
2009,07,28,12,26,33.40
2009,07,28,12,27,33.40
2009,07,28,12,28,33.50
2009,07,28,12,29,33.50
2009,07,28,12,30,33.60
2009,07,28,12,31,33.60
2009,07,28,12,32,33.70
2009,07,28,12,33,33.70
2009,07,28,12,34,33.60
2009,07,28,12,35,33.50
2009,07,28,12,36,33.40
2009,07,28,12,37,33.30
2009,07,28,12,38,33.20
2009,07,28,12,39,33.00
2009,07,28,12,40,32.80
2009,07,28,12,41,32.70
2009,07,28,12,42,32.70
2009,07,28,12,43,32.60
2009,07,28,12,44,32.60
2009,07,28,12,45,32.60
2009,07,28,12,46,32.70
2009,07,28,12,47,32.80
2009,07,28,12,48,33.00
2009,07,28,12,49,33.10
2009,07,28,12,50,33.30
2009,07,28,12,51,33.40
2009,07,28,12,52,33.50
2009,07,28,12,53,33.70
2009,07,28,12,54,33.70
2009,07,28,12,55,33.80
2009,07,28,12,56,33.80
2009,07,28,12,57,33.90
2009,07,28,12,58,34.00
2009,07,28,12,59,34.10
2009,07,28,13,00,34.20
2009,07,28,13,01,34.20
2009,07,28,13,02,34.30
2009,07,28,13,03,34.30
2009,07,28,13,04,34.30
2009,07,28,13,05,34.30
2009,07,28,13,06,34.30
2009,07,28,13,07,34.30
2009,07,28,13,08,34.30
2009,07,28,13,09,34.40
2009,07,28,13,10,34.50
2009,07,28,13,11,34.50
2009,07,28,13,12,34.50
2009,07,28,13,13,34.50
2009,07,28,13,14,34.50
2009,07,28,13,15,34.50
2009,07,28,13,16,34.50
2009,07,28,13,17,34.40
2009,07,28,13,18,34.40
2009,07,28,13,19,34.40
2009,07,28,13,20,34.50
2009,07,28,13,21,34.60
2009,07,28,13,22,34.70
2009,07,28,13,23,34.80
2009,07,28,13,24,34.90
2009,07,28,13,25,35.00
2009,07,28,13,26,35.10
2009,07,28,13,27,35.10
2009,07,28,13,28,35.30
2009,07,28,13,29,35.40
2009,07,28,13,30,35.50
2009,07,28,13,31,35.60
2009,07,28,13,32,35.70
2009,07,28,13,33,35.80
2009,07,28,13,34,35.90
2009,07,28,13,35,35.90
2009,07,28,13,36,35.90
2009,07,28,13,37,36.00
2009,07,28,13,38,36.10
2009,07,28,13,39,36.00
2009,07,28,13,40,36.00
2009,07,28,13,41,35.90
2009,07,28,13,42,35.90
2009,07,28,13,43,36.00
2009,07,28,13,44,36.00
2009,07,28,13,45,36.10
2009,07,28,13,46,36.00
2009,07,28,13,47,35.90
2009,07,28,13,48,35.90
2009,07,28,13,49,35.90
2009,07,28,13,50,35.80
2009,07,28,13,51,35.80
2009,07,28,13,52,35.80
2009,07,28,13,53,35.80
2009,07,28,13,54,35.80
2009,07,28,13,55,35.80
2009,07,28,13,56,35.90
2009,07,28,13,57,36.00
2009,07,28,13,58,36.10
2009,07,28,13,59,36.20
2009,07,28,14,00,36.20
2009,07,28,14,01,36.30
2009,07,28,14,02,36.30
2009,07,28,14,03,36.40
2009,07,28,14,04,36.40
2009,07,28,14,05,36.30
2009,07,28,14,06,36.20
2009,07,28,14,07,36.10
2009,07,28,14,08,36.10
2009,07,28,14,09,36.10
2009,07,28,14,10,36.10
2009,07,28,14,11,36.20
2009,07,28,14,12,36.30
2009,07,28,14,13,36.50
2009,07,28,14,14,36.60
2009,07,28,14,15,36.70
2009,07,28,14,16,36.80
2009,07,28,14,17,36.90
2009,07,28,14,18,37.00
2009,07,28,14,19,37.10
2009,07,28,14,20,37.10
2009,07,28,14,21,37.10
2009,07,28,14,22,37.10
2009,07,28,14,23,37.10
2009,07,28,14,24,37.10
2009,07,28,14,25,37.20
2009,07,28,14,26,37.20
2009,07,28,14,27,37.20
2009,07,28,14,28,37.30
2009,07,28,14,29,37.30
2009,07,28,14,30,37.30
2009,07,28,14,31,37.30
2009,07,28,14,32,37.30
2009,07,28,14,33,37.10
2009,07,28,14,34,36.80
2009,07,28,14,35,36.50
2009,07,28,14,36,36.30
2009,07,28,14,37,36.00
2009,07,28,14,38,35.90
2009,07,28,14,39,35.90
2009,07,28,14,40,35.80
2009,07,28,14,41,35.80
2009,07,28,14,42,35.70
2009,07,28,14,43,35.70
2009,07,28,14,44,35.70
2009,07,28,14,45,35.80
2009,07,28,14,46,35.80
2009,07,28,14,47,35.90
2009,07,28,14,48,36.10
2009,07,28,14,49,36.20
2009,07,28,14,50,36.40
2009,07,28,14,51,36.50
2009,07,28,14,52,36.70
2009,07,28,14,53,36.80
2009,07,28,14,54,37.00
2009,07,28,14,55,37.20
2009,07,28,14,56,37.30
2009,07,28,14,57,37.50
2009,07,28,14,58,37.60
2009,07,28,14,59,37.80
2009,07,28,15,00,37.80
2009,07,28,15,01,37.90
2009,07,28,15,02,38.00
2009,07,28,15,03,38.10
2009,07,28,15,04,38.10
2009,07,28,15,05,38.20
2009,07,28,15,06,38.20
2009,07,28,15,07,38.20
2009,07,28,15,08,38.20
2009,07,28,15,09,38.30
2009,07,28,15,10,38.30
2009,07,28,15,11,38.30
2009,07,28,15,12,38.40
2009,07,28,15,13,38.40
2009,07,28,15,14,38.40
2009,07,28,15,15,38.40
2009,07,28,15,16,38.40
2009,07,28,15,17,38.40
2009,07,28,15,18,38.50
2009,07,28,15,19,38.50
2009,07,28,15,20,38.60
2009,07,28,15,21,38.60
2009,07,28,15,22,38.70
2009,07,28,15,23,38.70
2009,07,28,15,24,38.70
2009,07,28,15,25,38.70
2009,07,28,15,26,38.70
2009,07,28,15,27,38.70
2009,07,28,15,28,38.70
2009,07,28,15,29,38.80
2009,07,28,15,30,38.70
2009,07,28,15,31,38.70
2009,07,28,15,32,38.70
2009,07,28,15,33,38.60
2009,07,28,15,34,38.50
2009,07,28,15,35,38.50
2009,07,28,15,36,38.40
2009,07,28,15,37,38.40
2009,07,28,15,38,38.40
2009,07,28,15,39,38.40
2009,07,28,15,40,38.40
2009,07,28,15,41,38.40
2009,07,28,15,42,38.30
2009,07,28,15,43,38.20
2009,07,28,15,44,38.20
2009,07,28,15,45,38.10
2009,07,28,15,46,38.10
2009,07,28,15,47,38.10
2009,07,28,15,48,38.10
2009,07,28,15,49,38.10
2009,07,28,15,50,38.10
2009,07,28,15,51,38.00
2009,07,28,15,52,38.00
2009,07,28,15,53,37.90
2009,07,28,15,54,37.90
2009,07,28,15,55,37.90
2009,07,28,15,56,37.90
2009,07,28,15,57,38.00
2009,07,28,15,58,38.10
2009,07,28,15,59,38.10
2009,07,28,16,00,38.10
2009,07,28,16,01,38.10
2009,07,28,16,02,38.10
2009,07,28,16,03,38.00
2009,07,28,16,04,38.10
2009,07,28,16,05,38.10
2009,07,28,16,06,38.10
2009,07,28,16,07,38.20
2009,07,28,16,08,38.20
2009,07,28,16,09,38.30
2009,07,28,16,10,38.30
2009,07,28,16,11,38.30
2009,07,28,16,12,38.40
2009,07,28,16,13,38.40
2009,07,28,16,14,38.40
2009,07,28,16,15,38.40
2009,07,28,16,16,38.40
2009,07,28,16,17,38.40
2009,07,28,16,18,38.30
2009,07,28,16,19,38.30
2009,07,28,16,20,38.30
2009,07,28,16,21,38.40
2009,07,28,16,22,38.40
2009,07,28,16,23,38.40
2009,07,28,16,24,38.50
2009,07,28,16,25,38.50
2009,07,28,16,26,38.50
2009,07,28,16,27,38.50
2009,07,28,16,28,38.50
2009,07,28,16,29,38.40
2009,07,28,16,30,38.30
2009,07,28,16,31,38.20
2009,07,28,16,32,38.20
2009,07,28,16,33,38.20
2009,07,28,16,34,38.20
2009,07,28,16,35,38.10
2009,07,28,16,36,38.00
2009,07,28,16,37,37.90
2009,07,28,16,38,37.80
2009,07,28,16,39,37.70
2009,07,28,16,40,37.50
2009,07,28,16,41,37.30
2009,07,28,16,42,37.20
2009,07,28,16,43,37.10
2009,07,28,16,44,37.00
2009,07,28,16,45,36.80
2009,07,28,16,46,36.80
2009,07,28,16,47,36.70
2009,07,28,16,48,36.70
2009,07,28,16,49,36.60
2009,07,28,16,50,36.60
2009,07,28,16,51,36.60
2009,07,28,16,52,36.60
2009,07,28,16,53,36.60
2009,07,28,16,54,36.60
2009,07,28,16,55,36.50
2009,07,28,16,56,36.50
2009,07,28,16,57,36.60
2009,07,28,16,58,36.70
2009,07,28,16,59,36.70
2009,07,28,17,00,36.80
2009,07,28,17,01,36.90
2009,07,28,17,02,37.00
2009,07,28,17,03,37.00
2009,07,28,17,04,37.10
2009,07,28,17,05,37.10
2009,07,28,17,06,37.20
2009,07,28,17,07,37.20
2009,07,28,17,08,37.30
2009,07,28,17,09,37.30
2009,07,28,17,10,37.30
2009,07,28,17,11,37.30
2009,07,28,17,12,37.30
2009,07,28,17,13,37.40
2009,07,28,17,14,37.50
2009,07,28,17,15,37.50
2009,07,28,17,16,37.60
2009,07,28,17,17,37.60
2009,07,28,17,18,37.70
2009,07,28,17,19,37.80